Weather History for Ardmore, OK

Change the Weather History Date:

Wednesday, November 20, 2013

  Actual Average Record
Temperature  
Mean Temperature 55 °F -  
Max Temperature 62 °F 60 °F 80 °F (2007)
Min Temperature 48 °F 42 °F 28 °F (2014)
Degree Days  
Heating Degree Days 10    
Growing Degree Days 5 (Base 50)    
Moisture  
Dew Point 41 °F    
Average Humidity 58    
Maximum Humidity 72    
Minimum Humidity 47    
Precipitation  
Precipitation 0.00 in - - ()
Sea Level Pressure  
Sea Level Pressure 29.97 in    
Wind  
Wind Speed 8 mph (SE)    
Max Wind Speed 14 mph    
Max Gust Speed 17 mph    
Visibility 10 miles    
Events      
Averages and records for this station are not official NWS values.
T = Trace of Precipitation, MM = Missing Value Source: NWS Daily Summary

Daily Weather History Graph

Daily Weather History Graph

Search for Another Location

Airport:

Trip Planner

Search our weather history database for the weather conditions in past years. The results will help you decide how hot, cold, wet, or windy it might be!

Date:

Astronomy

Nov. 20, 2013 Rise Set
Actual Time 7:06 AM CST 5:21 PM CST
Civil Twilight 6:39 AM CST 5:48 PM CST
Nautical Twilight 6:08 AM CST 6:18 PM CST
Astronomical Twilight 5:38 AM CST 6:48 PM CST
Moon 8:04 PM CST (11/20) 9:31 AM CST (11/20)
Length of Visible Light 11h 08m
Length of Day
10h 14m
Waning Gibbous, 91% of the Moon is Illuminated
Nov 20
Waning Gibbous
Nov 25
Last Quarter
Dec 2
New
Dec 9
First Quarter
Dec 17
Full

Hourly Weather History & Observations

Time (CST) Temp. Dew Point Humidity Pressure Visibility Wind Dir Wind Speed Gust Speed Precip Events Conditions
12:15 AM 53.6 °F 33.8 °F 47% 30.02 in 10.0 mi SE 6.9 mph - N/A   Clear
12:35 AM 53.6 °F 34.0 °F 47% 30.02 in 10.0 mi SE 9.2 mph - N/A   Scattered Clouds
12:55 AM 52.9 °F 34.0 °F 49% 30.01 in 10.0 mi SE 8.1 mph - N/A   Mostly Cloudy
1:15 AM 53.2 °F 34.2 °F 48% 30.01 in 10.0 mi SE 5.8 mph - N/A   Mostly Cloudy
1:35 AM 53.1 °F 34.3 °F 49% 30.00 in 10.0 mi SE 5.8 mph - N/A   Overcast
1:55 AM 52.5 °F 34.5 °F 50% 30.01 in 10.0 mi SE 4.6 mph - N/A   Mostly Cloudy
2:15 AM 51.8 °F 34.7 °F 52% 30.01 in 10.0 mi ESE 5.8 mph - N/A   Mostly Cloudy
2:35 AM 52.2 °F 34.7 °F 51% 30.00 in 10.0 mi SE 5.8 mph - N/A   Overcast
2:55 AM 52.0 °F 34.7 °F 52% 30.00 in 10.0 mi SE 9.2 mph - N/A   Overcast
3:15 AM 51.8 °F 34.5 °F 52% 29.99 in 10.0 mi SE 9.2 mph - N/A   Mostly Cloudy
3:35 AM 51.4 °F 34.7 °F 53% 29.99 in 10.0 mi SE 8.1 mph - N/A   Mostly Cloudy
3:55 AM 50.9 °F 34.7 °F 54% 29.99 in 10.0 mi SE 8.1 mph - N/A   Mostly Cloudy
4:15 AM 50.9 °F 34.7 °F 54% 30.00 in 10.0 mi SE 6.9 mph - N/A   Clear
4:35 AM 50.4 °F 34.7 °F 55% 30.00 in 10.0 mi SE 8.1 mph - N/A   Clear
4:55 AM 50.9 °F 34.7 °F 54% 29.99 in 10.0 mi SE 9.2 mph - N/A   Mostly Cloudy
5:15 AM 50.4 °F 34.7 °F 55% 29.99 in 10.0 mi SE 9.2 mph - N/A   Scattered Clouds
5:35 AM 50.0 °F 34.9 °F 56% 29.99 in 10.0 mi SE 8.1 mph - N/A   Clear
6:55 AM 48.2 °F 35.6 °F 62% 30.00 in 10.0 mi SE 5.8 mph 16.1 mph N/A   Scattered Clouds
7:55 AM 50.0 °F 35.6 °F 58% 30.00 in 10.0 mi ESE 10.4 mph - N/A   Overcast
8:55 AM 51.8 °F 35.6 °F 54% 30.00 in 10.0 mi SSE 13.8 mph - N/A   Overcast
9:55 AM 53.6 °F 35.6 °F 51% 30.00 in 10.0 mi SE 10.4 mph - N/A   Overcast
10:55 AM 55.4 °F 35.6 °F 47% 29.99 in 10.0 mi SSE 8.1 mph - N/A   Overcast
11:55 AM 57.2 °F 37.4 °F 48% 29.97 in 10.0 mi SSE 12.7 mph 16.1 mph N/A   Overcast
1:55 PM 59.0 °F 41.0 °F 51% 29.89 in 10.0 mi SE 9.2 mph - N/A   Overcast
2:55 PM 60.8 °F 46.4 °F 59% 29.87 in 10.0 mi SSE 12.7 mph - N/A   Overcast
3:55 PM 62.6 °F 48.2 °F 59% 29.87 in 10.0 mi North - - N/A   Overcast
4:55 PM 62.6 °F 50.0 °F 63% 29.89 in 10.0 mi SSE 12.7 mph 17.3 mph N/A   Overcast
5:55 PM 62.6 °F 50.0 °F 63% 29.90 in 10.0 mi SE 12.7 mph 16.1 mph N/A   Overcast
6:55 PM 62.6 °F 50.0 °F 63% 29.92 in 10.0 mi SE 10.4 mph - N/A   Overcast
7:55 PM 60.8 °F 51.8 °F 72% 29.92 in 10.0 mi SE 10.4 mph - N/A   Overcast
8:55 PM 62.6 °F 53.6 °F 72% 29.92 in 10.0 mi North - - N/A   Overcast
9:55 PM 62.6 °F 53.6 °F 72% 29.94 in 10.0 mi SSE 12.7 mph - N/A   Overcast
10:35 PM 62.1 °F 52.2 °F 70% 29.94 in 10.0 mi SSE 11.5 mph - N/A   Overcast
10:55 PM 61.9 °F 52.3 °F 71% 29.94 in 10.0 mi SSE 11.5 mph - N/A   Overcast
11:15 PM 62.1 °F 52.9 °F 72% 29.94 in 10.0 mi SSE 10.4 mph - N/A   Overcast
11:35 PM 62.2 °F 53.2 °F 72% 29.94 in 10.0 mi SSE 10.4 mph - N/A   Overcast
11:55 PM 62.2 °F 53.2 °F 72% 29.94 in 10.0 mi SSE 9.2 mph - N/A   Overcast